Overview Statistics Trail Chart Weather Telemetry Raw packets
 

This is the latest recevied weather packets stored in our database for station/object KB4RFE. If no packets are shown the sender has not sent any weather packets the latest 10 day(s).

<< 14 15 16 17 18 19 20 >>
Time Temp. Humidity Pressure Rain* Wind** Luminosity Snow
1788531050 31.11° C 73% 1020.1 hPa 0 mm - 519 W/m² -
1788530746 30.56° C 75% 1020.2 hPa 0 mm - 499 W/m² -
1788530440 30.56° C 77% 1020 hPa 0 mm - 494 W/m² -
1788530139 30° C 77% 1020.3 hPa 0 mm - 503 W/m² -
1788529836 30.56° C 77% 1020 hPa 0 mm - 85 W/m² -
1788529531 30° C 78% 1020 hPa 0 mm - 437 W/m² -
1788529230 30° C 76% 1019.8 hPa 0 mm - 407 W/m² -
1788528925 30° C 79% 1019.8 hPa 0 mm - 397 W/m² -
1788528622 29.44° C 79% 1019.7 hPa 0 mm - 300 W/m² -
1788528322 29.44° C 82% 1019.8 hPa 0 mm - 316 W/m² -
1788528022 28.89° C 82% 1019.8 hPa 0 mm - 94 W/m² -
1788527752 28.89° C 84% 1019.8 hPa 0 mm - 70 W/m² -
1788527417 28.33° C 84% 1019.8 hPa 0 mm - 71 W/m² -
1788527116 28.33° C 86% 1019.9 hPa 0 mm - 64 W/m² -
1788526811 27.78° C 88% 1019.8 hPa 0 mm - 48 W/m² -
1788526508 27.78° C 89% 1019.9 hPa 0 mm - 48 W/m² -
1788526202 27.78° C 89% 1019.8 hPa 0 mm - 43 W/m² -
1788525899 27.22° C 92% 1019.7 hPa 0 mm - 43 W/m² -
1788525595 27.22° C 95% 1019.9 hPa 0 mm - 39 W/m² -
1788525294 27.22° C 96% 1019.9 hPa 0 mm - 47 W/m² -
1788524998 26.67° C 97% 1019.8 hPa 0 mm - 36 W/m² -
1788524689 26.67° C 96% 1019.7 hPa 0 mm - 35 W/m² -
1788524383 26.67° C 96% 1019.7 hPa 0 mm - 32 W/m² -
1788524080 26.67° C 96% 1019.8 hPa 0 mm - 32 W/m² -
1788523776 26.67° C 96% 1019.7 hPa 0 mm - 28 W/m² -

* Rain latest hour (hover to see other rain measurements)
** Current wind speed in m/s (hover to see current wind gust speed)